Home > Time Zones > World Clock > Weather > France > Pau > Past weeks

Flag for France Weather past 2 weeks in Pau, France

Now
55 °F

Mostly cloudy.


Feels Like: 52 °F
Forecast: 49 / 58 °F
Wind: 12 mph from West

Location: Pau Airport

Current Time: Mar 27, 2015 at 4:58:40 PM

Latest Report: Mar 27, 2015 at 4:30 PM


Visibility: N/A

Pressure: 30.33 "Hg

Humidity: 67%

Dew point: 45 °F

Location of PauLocation

Historic Weather in Pau — Graph

°F

Pau temperature yesterday

Maximum temperature yesterday: 54 °F (at 1:30 PM)
Minimum temperature yesterday: 34 °F (at 1:00 AM)
Average temperature yesterday: 45 °F

Past Weeks' High & Low Weather Summary

 TemperatureHumidityPressure
High64 °F (Mar 17, 2:30 PM)100% (Mar 13, 9:30 AM)30.33 "Hg (Mar 13, 9:30 AM)
Low34 °F (Mar 26, 1:00 AM)30% (Mar 17, 2:00 PM)29.77 "Hg (Mar 23, 5:00 PM)
Average47 °F84%30.05 "Hg
* Reported Mar 12 4:00 PM — Mar 27 4:00 PM, Pau, Weather by CustomWeather, © 2015

Note: Actual official high and low records may vary slightly from our data, if they occured in-between our weather recording intervals... More about our weather records

Advertising

Pau weather history for previous 24 hours

 ConditionsComfort  
Time TempWeatherWind HumidityBarometerVisibility
4:00 PM
Fri, Mar 27
57 °FPartly sunny.14 mph67%30.33 "HgN/A
3:30 PM57 °FCloudy.13 mph63%30.33 "HgN/A
3:00 PM57 °FMostly cloudy.12 mph59%30.33 "HgN/A
2:30 PM57 °FMostly cloudy.12 mph59%30.33 "HgN/A
2:00 PM57 °FPartly sunny.12 mph59%30.33 "HgN/A
1:30 PM57 °FPartly sunny.12 mph59%30.33 "HgN/A
12:30 PM55 °FBroken clouds.12 mph63%30.33 "HgN/A
12:00 PM55 °FPartly sunny.12 mph67%30.33 "HgN/A
11:30 AM54 °FMore clouds than sun.13 mph67%30.33 "HgN/A
11:00 AM54 °FMore clouds than sun.12 mph67%30.33 "HgN/A
10:30 AM54 °FOvercast.12 mph63%30.33 "HgN/A
10:00 AM52 °FPartly sunny.10 mph72%30.33 "HgN/A
9:30 AM50 °FOvercast.8 mph76%30.33 "HgN/A
9:00 AM50 °FOvercast.8 mph82%30.33 "HgN/A
8:30 AM48 °FOvercast.8 mph87%30.30 "HgN/A
8:00 AM48 °FOvercast.7 mph87%30.30 "HgN/A
7:30 AM46 °FOvercast.6 mph87%30.30 "HgN/A
7:00 AM46 °FOvercast.7 mph87%30.27 "HgN/A
6:30 AM46 °FOvercast.7 mph87%30.27 "HgN/A
6:00 AM46 °FOvercast.7 mph87%30.27 "HgN/A
5:30 AM46 °FOvercast.8 mph93%30.27 "HgN/A
5:00 AM46 °FOvercast.6 mph93%30.24 "HgN/A
4:00 AM46 °FMostly cloudy.6 mph100%30.24 "HgN/A
3:30 AM46 °FOvercast.6 mph93%30.24 "HgN/A
3:00 AM46 °FPartly cloudy.6 mph100%30.24 "HgN/A
2:30 AM48 °FPassing clouds.6 mph94%30.24 "HgN/A
2:00 AM48 °FPassing clouds.7 mph94%30.21 "HgN/A
1:30 AM48 °FPassing clouds.8 mph94%30.21 "HgN/A
1:00 AM48 °FMostly cloudy.9 mph94%30.21 "HgN/A
12:30 AM48 °FMostly cloudy.5 mph100%30.21 "HgN/A
12:00 AM48 °FMostly cloudy.7 mph100%30.18 "HgN/A
11:30 PM
Thu, Mar 26
48 °FMostly cloudy.9 mph100%30.18 "HgN/A
11:00 PM50 °FPartly cloudy.9 mph88%30.18 "HgN/A
10:30 PM50 °FMostly cloudy.12 mph88%30.15 "HgN/A
10:00 PM50 °FLight rain. Fog.18 mph94%30.15 "Hg3 mi
9:30 PM52 °FLight rain. Low clouds.13 mph94%30.12 "Hg4 mi
9:00 PM52 °FDrizzle. Low clouds.12 mph94%30.09 "Hg5 mi
8:30 PM52 °FDrizzle. Low clouds.16 mph94%30.07 "HgN/A
8:00 PM52 °FMostly cloudy.13 mph94%30.07 "HgN/A
7:30 PM52 °FDrizzle. Low clouds.14 mph100%30.04 "Hg4 mi
7:00 PM52 °FDrizzle. Low clouds.16 mph100%30.01 "Hg4 mi
6:30 PM52 °FDrizzle. Fog.12 mph100%30.01 "Hg3 mi
6:00 PM52 °FDrizzle. Fog.9 mph100%29.98 "Hg3 mi
5:30 PM50 °FDrizzle. Low clouds.6 mph100%29.98 "Hg4 mi
5:00 PM50 °FDrizzle. Mostly cloudy.7 mph100%29.98 "Hg4 mi
4:30 PM50 °FDrizzle. Mostly cloudy.7 mph94%29.98 "Hg4 mi
4:00 PM52 °FMostly cloudy.7 mph82%29.98 "HgN/A
Weather by CustomWeather, © 2015

See weather overviewHow to use our weather pages